This demonstration page uses our WeatherBlox Daily Observations layout. Learn more.

Left ArrowRight Arrow

Hourly Observations for October 19, 2022

Temp ( °F °C ) Dew Point ( °F °C ) Humidity (%) Winds ( mph kmh ) Pressure ( in mb ) Visibility ( mi km ) Precip ( " mm )
12:56 am 00:56 Clear 30 -1.1 18 -7.8 60 60 Calm 30.34 1028 10 16 0.00 0.00
1:56 am 01:56 Clear 29 -1.7 18 -7.8 63 63 Calm 30.33 1027 10 16 0.00 0.00
2:56 am 02:56 Clear 29 -1.7 17 -8.3 61 61 Calm 30.32 1027 10 16 0.00 0.00
3:56 am 03:56 Clear 28 -2.2 16 -8.9 60 60 Calm 30.29 1026 10 16 0.00 0.00
4:56 am 04:56 Clear 32 0 14 -10 47 47 SW 5 7 30.27 1025 10 16 0.00 0.00
5:56 am 05:56 Clear 29 -1.7 17 -8.3 61 61 SSW 6 9 30.25 1025 10 16 0.00 0.00
6:56 am 06:56 Clear 26 -3.3 18 -7.8 71 71 SSW 5 7 30.25 1024 10 16 0.00 0.00
7:56 am 07:56 Sunny 27 -2.8 17 -8.3 66 66 SW 3 6 30.24 1024 10 16 0.00 0.00
8:56 am 08:56 Sunny 33 0.6 17 -8.3 51 51 SW 5 7 30.22 1024 10 16 0.00 0.00
9:56 am 09:56 Sunny 40 4.4 20 -6.7 44 44 SW 5 7 30.21 1023 10 16 0.00 0.00
10:56 am 10:56 Sunny 48 8.9 23 -5 37 37 WSW 6 9 30.19 1022 10 16 0.00 0.00
11:56 am 11:56 Sunny 52 11.1 24 -4.4 33 33 SW 5 7 30.17 1022 10 16 0.00 0.00
12:56 pm 12:56 Sunny 58 14.4 26 -3.3 29 29 WSW 3 6 30.15 1021 10 16 0.00 0.00
1:56 pm 13:56 Sunny 62 16.7 28 -2.2 27 27 SE 5 7 30.11 1020 10 16 0.00 0.00
2:56 pm 14:56 Sunny 65 18.3 30 -1.1 27 27 WNW 3 6 30.09 1019 10 16 0.00 0.00
3:56 pm 15:56 Sunny 65 18.3 29 -1.7 26 26 NW 3 6 30.06 1018 10 16 0.00 0.00
4:56 pm 16:56 Sunny 67 19.4 30 -1.1 25 25 WNW 5 7 30.05 1018 10 16 0.00 0.00
5:56 pm 17:56 Sunny 66 18.9 31 -0.6 27 27 Calm 30.04 1017 10 16 0.00 0.00
6:56 pm 18:56 Clear 57 13.9 31 -0.6 37 37 SE 5 7 30.05 1018 10 16 0.00 0.00
7:56 pm 19:56 Clear 54 12.2 30 -1.1 40 40 SSE 3 6 30.06 1018 10 16 0.00 0.00
8:56 pm 20:56 Clear 51 10.6 32 0 48 48 WSW 3 6 30.06 1018 10 16 0.00 0.00
9:56 pm 21:56 Clear 53 11.7 32 0 44 44 WSW 7 11 30.04 1017 10 16 0.00 0.00
10:56 pm 22:56 Clear 45 7.2 32 0 60 60 W 3 6 30.05 1018 10 16 0.00 0.00
11:56 pm 23:56 Clear 42 5.6 31 -0.6 64 64 W 5 7 30.04 1017 10 16 0.00 0.00

Powered by AerisWeather